Location: Beuvrequen
(50.8014°N, 1.6652°E)
Time: 22:16:00
(UTC+00:00)

ATLAS 5 CENTAUR R/B - Pass Details

Date: 16 October 2021
Orbit: 497 x 1159 km, 63.4° (Epoch: 25 November)

Event Time Altitude Azimuth Distance (km) Brightness Sun altitude
Rises 18:40:19 0° 199° (SSW) 2,594 4.9 -16.8°
Reaches altitude 10° 18:42:28 10° 191° (S) 1,745 3.9 -17.1°
Maximum altitude 18:46:02 37° 122° (ESE) 867 1.8 -17.7°
Enters shadow 18:46:05 37° 121° (ESE) 868 1.8 -17.7°
